Weather History for Santa Ana, CA

Change the Weather History Date:

Thursday, March 13, 2014

  Actual Average Record
Temperature  
Mean Temperature 63 °F 59 °F  
Max Temperature 68 °F 67 °F 76 °F (2007)
Min Temperature 57 °F 51 °F 42 °F (2006)
Degree Days  
Heating Degree Days 2 6  
Month to date heating degree days 26 83  
Since 1 July heating degree days 516 989  
Cooling Degree Days 0 0  
Month to date cooling degree days 13 0  
Year to date cooling degree days 40 8  
Growing Degree Days 12 (Base 50)    
Moisture  
Dew Point 50 °F    
Average Humidity 65    
Maximum Humidity 78    
Minimum Humidity 52    
Precipitation  
Precipitation 0.00 in 0.04 in 0.84 in (1996)
Month to date precipitation 0.70 1.34  
Year to date precipitation 2.27 7.20  
Since 1 July precipitation 3.32 11.57  
Snow  
Snow 0.00 in - - ()
Month to date snowfall 0.0  
Year to date snowfall 0.0  
Since 1 July snowfall 0.0  
Snow Depth 0.00 in    
Sea Level Pressure  
Sea Level Pressure 29.96 in    
Wind  
Wind Speed 5 mph (South)    
Max Wind Speed 15 mph    
Max Gust Speed 20 mph    
Visibility 10 miles    
Events      
T = Trace of Precipitation, MM = Missing Value Source: NWS Daily Summary

Daily Weather History Graph

Daily Weather History Graph

Search for Another Location

Airport:

Trip Planner

Search our weather history database for the weather conditions in past years. The results will help you decide how hot, cold, wet, or windy it might be!

Date:

Astronomy

Mar. 13, 2014 Rise Set
Actual Time 7:04 AM PDT 6:57 PM PDT
Civil Twilight 6:39 AM PDT 7:22 PM PDT
Nautical Twilight 6:10 AM PDT 7:51 PM PDT
Astronomical Twilight 5:41 AM PDT 8:20 PM PDT
Moon 4:33 PM PDT (3/13) 5:07 AM PDT (3/13)
Length of Visible Light 12h 43m
Length of Day
11h 53m
Waxing Gibbous, 92% of the Moon is Illuminated
Mar 13
Waxing Gibbous
Mar 16
Full
Mar 23
Last Quarter
Mar 30
New
Apr 7
First Quarter

Hourly Weather History & Observations

Time (PDT) Temp. Dew Point Humidity Pressure Visibility Wind Dir Wind Speed Gust Speed Precip Events Conditions
12:28 AM 60.8 °F 53.6 °F 77% 29.98 in 10.0 mi South 4.6 mph - N/A   Mostly Cloudy
12:53 AM 60.1 °F 53.1 °F 78% 29.98 in 10.0 mi SSE 3.5 mph - N/A   Overcast
1:53 AM 60.1 °F 53.1 °F 78% 29.97 in 10.0 mi SSE 4.6 mph - N/A   Overcast
2:53 AM 61.0 °F 52.0 °F 72% 29.96 in 10.0 mi Calm Calm - N/A   Overcast
3:53 AM 61.0 °F 52.0 °F 72% 29.94 in 10.0 mi South 4.6 mph - N/A   Overcast
4:53 AM 60.1 °F 52.0 °F 75% 29.94 in 10.0 mi Calm Calm - N/A   Overcast
5:53 AM 61.0 °F 52.0 °F 72% 29.95 in 9.0 mi South 3.5 mph - N/A   Overcast
6:53 AM 59.0 °F 52.0 °F 78% 29.95 in 10.0 mi SE 4.6 mph - N/A   Mostly Cloudy
7:53 AM 59.0 °F 51.1 °F 75% 29.96 in 10.0 mi SSE 3.5 mph - N/A   Mostly Cloudy
8:53 AM 60.1 °F 50.0 °F 69% 29.98 in 10.0 mi Calm Calm - N/A   Mostly Cloudy
9:29 AM 60.8 °F 50.0 °F 68% 29.99 in 10.0 mi Calm Calm - N/A   Mostly Cloudy
9:53 AM 62.1 °F 50.0 °F 65% 29.99 in 10.0 mi SW 3.5 mph - N/A   Mostly Cloudy
10:53 AM 64.0 °F 50.0 °F 60% 29.98 in 10.0 mi SSE 8.1 mph - N/A   Scattered Clouds
11:53 AM 66.0 °F 48.9 °F 54% 29.95 in 10.0 mi South 10.4 mph - N/A   Partly Cloudy
12:53 PM 66.0 °F 48.0 °F 52% 29.95 in 10.0 mi SSW 10.4 mph - N/A   Scattered Clouds
1:53 PM 66.9 °F 48.9 °F 52% 29.94 in 10.0 mi SSW 10.4 mph - N/A   Scattered Clouds
2:53 PM 66.0 °F 48.9 °F 54% 29.93 in 10.0 mi SW 9.2 mph - N/A   Scattered Clouds
3:53 PM 66.0 °F 48.0 °F 52% 29.92 in 10.0 mi SSW 11.5 mph 17.3 mph N/A   Partly Cloudy
4:53 PM 64.9 °F 46.9 °F 52% 29.92 in 10.0 mi SSW 11.5 mph - N/A   Partly Cloudy
5:53 PM 64.0 °F 48.0 °F 56% 29.93 in 10.0 mi SW 6.9 mph - N/A   Partly Cloudy
6:53 PM 63.0 °F 50.0 °F 63% 29.95 in 10.0 mi SW 5.8 mph - N/A   Partly Cloudy
7:53 PM 62.1 °F 50.0 °F 65% 29.97 in 10.0 mi SSW 3.5 mph - N/A   Clear
8:53 PM 61.0 °F 50.0 °F 67% 30.00 in 10.0 mi South 4.6 mph - N/A   Clear
9:53 PM 60.1 °F 51.1 °F 72% 30.00 in 10.0 mi Calm Calm - N/A   Clear
10:53 PM 60.1 °F 50.0 °F 69% 30.02 in 10.0 mi Calm Calm - N/A   Partly Cloudy
11:53 PM 57.9 °F 50.0 °F 75% 30.02 in 10.0 mi Calm Calm - N/A   Clear